FENGYUN 1C DEB

Satellite information

Favourite Embed

Satellite Type and Status

DEBRISIN ORBIT

Key statistics

Satellite FENGYUN 1C DEB at a glance.

Uptime

9617

Days in orbit

Revolutions

≈ 14.5

Per day

Orbit

SSO

Sun Synchronous Orbit

Inclination

98.9

Latest

Satellite identification and parameters

Extended collection of information and parameters for FENGYUN 1C DEB.

Object identification

Identified? True

Debris? True

Object name: FENGYUN 1C DEB

International designator: 1999-025AUN

Object number (NORAD): 30804

Object ID (CCSDS): 30804

Country: PEOPLES REPUBLIC OF CHINA (PRC)

Current information (Y/N): Y

RCS size: SMALL

Orbital parameters

Period: 99.037 minutes

Inclination: 98.9094 deg

SMA: 7090.723 km

Apoapsis: 845.993 km

Periapsis: 579.182 km

RAAN: 308.3128 deg

Eccentricy: 0.01881405

Argument of periapsis: 126.5601 deg

Mean anomaly: 264.9456 deg

Mean motion: 14.54008761 rev/day

Mean motion (dot): 0.00003536 rev/day2

B* drag term: 0.00067352373 1/REarth

Two-line elements (TLE)

Creation date: Sept. 6, 2025, 10:23 a.m.

Reference frame: TEME

Reference center: EARTH

Epoch: Sept. 6, 2025, 2:51 a.m. UTC

TLE line 0: 0 FENGYUN 1C DEB

TLE line 1: 1 30804U 99025AUN 25249.11922267 .00003536 00000-0 67352-3 0 9995

TLE line 2: 2 30804 98.9094 308.3128 0188141 126.5601 264.9456 14.54008761980587

Live tracking on map

Real-time ground track for satellite FENGYUN 1C DEB.

In-orbit conjunctions

A list of the most updated potential collisions computed for object FENGYUN 1C DEB.

Target Orbit TCA Probability of collision Miss distance Type
CZ-4C DEB SSO 2024-11-15 01:42:01 0.0001593878 664.0 (m) DEBRIS
SL-14 R/B LEO 2024-11-11 05:07:35 0.001548813 168.0 (m) ROCKET BODY

Associated space launch

Chinese polar orbiting meteorological satellite

FENGYUN 1C DEB was lifted into orbit during the mission ‘Long March 4B | Feng Yun 1C’, on board a Long March 4B space rocket.

The launch took place on May 10, 1999, 1:33 a.m. from Launch Complex 7.

For more information about the launch, click the button.

Launch to space Long March 4B | Feng Yun 1C
Long March 4B | Feng Yun 1C

Agency: N/A

Status: Launch Successful

Launch date: May 10, 1999, 1:33 a.m. UTC

Rocket: Long March 4B

Launch pad: Launch Complex 7

Location: Taiyuan Satellite Launch Center, People's Republic of China

...

Latest news about this satellite

There are no fresh news available about this satellite. Check back as we update our databases every day.


Newsletter sign-up

Weekly statistics, charts and insights to help you stay on top of the space industry.